Time,TemperatureF,DewpointF,PressureIn,WindDirection,WindDirectionDegrees,WindSpeedMPH,WindSpeedGustMPH,Humidity,HourlyPrecipIn,Conditions,Clouds,dailyrainin,SoftwareType,DateUTC
2013-07-31 00:08:00,70.4,69.0,30.11,North,5,0.0,0.0,94,0.00,,,0.00,weatherlink.com 1.10,2013-07-31 04:08:00,
2013-07-31 00:23:00,70.3,68.0,30.11,North,5,0.0,0.0,93,0.00,,,0.00,weatherlink.com 1.10,2013-07-31 04:23:00,
2013-07-31 00:38:00,70.1,68.0,30.11,North,5,0.0,0.0,94,0.00,,,0.00,weatherlink.com 1.10,2013-07-31 04:38:00,
2013-07-31 00:53:00,69.9,68.0,30.11,North,5,0.0,0.0,94,0.00,,,0.00,weatherlink.com 1.10,2013-07-31 04:53:00,
2013-07-31 01:08:00,69.9,68.0,30.11,North,5,0.0,0.0,94,0.00,,,0.00,weatherlink.com 1.10,2013-07-31 05:08:00,
2013-07-31 01:23:00,69.8,68.0,30.10,North,5,0.0,0.0,94,0.00,,,0.00,weatherlink.com 1.10,2013-07-31 05:23:00,
2013-07-31 01:38:00,69.6,68.0,30.10,North,5,0.0,0.0,94,0.00,,,0.00,weatherlink.com 1.10,2013-07-31 05:38:00,
2013-07-31 01:53:00,69.5,68.0,30.10,North,5,0.0,0.0,94,0.00,,,0.00,weatherlink.com 1.10,2013-07-31 05:53:00,
2013-07-31 02:08:00,69.4,68.0,30.10,North,5,0.0,0.0,94,0.00,,,0.00,weatherlink.com 1.10,2013-07-31 06:08:00,
2013-07-31 02:23:00,69.3,68.0,30.09,North,5,0.0,0.0,94,0.00,,,0.00,weatherlink.com 1.10,2013-07-31 06:23:00,
2013-07-31 02:38:00,69.2,67.0,30.09,North,5,0.0,0.0,93,0.00,,,0.00,weatherlink.com 1.10,2013-07-31 06:38:00,
2013-07-31 02:53:00,69.1,67.0,30.09,North,5,0.0,0.0,94,0.00,,,0.00,weatherlink.com 1.10,2013-07-31 06:53:00,
2013-07-31 03:08:00,69.1,67.0,30.09,North,5,0.0,0.0,94,0.00,,,0.00,weatherlink.com 1.10,2013-07-31 07:08:00,
2013-07-31 03:23:00,69.1,67.0,30.09,North,5,0.0,0.0,94,0.00,,,0.00,weatherlink.com 1.10,2013-07-31 07:23:00,
2013-07-31 03:38:00,69.0,67.0,30.09,North,5,0.0,0.0,94,0.00,,,0.00,weatherlink.com 1.10,2013-07-31 07:38:00,
2013-07-31 03:53:00,68.9,67.0,30.09,North,5,0.0,0.0,94,0.00,,,0.00,weatherlink.com 1.10,2013-07-31 07:53:00,
2013-07-31 04:08:00,68.8,67.0,30.09,North,5,0.0,0.0,94,0.00,,,0.00,weatherlink.com 1.10,2013-07-31 08:08:00,
2013-07-31 04:23:00,68.8,67.0,30.08,North,5,0.0,0.0,94,0.00,,,0.00,weatherlink.com 1.10,2013-07-31 08:23:00,
2013-07-31 04:38:00,68.7,67.0,30.08,North,5,0.0,0.0,94,0.00,,,0.00,weatherlink.com 1.10,2013-07-31 08:38:00,
2013-07-31 04:53:00,68.7,67.0,30.08,North,5,0.0,0.0,94,0.00,,,0.00,weatherlink.com 1.10,2013-07-31 08:53:00,
2013-07-31 05:08:00,68.6,67.0,30.08,North,5,0.0,0.0,94,0.00,,,0.00,weatherlink.com 1.10,2013-07-31 09:08:00,
2013-07-31 05:23:00,68.6,67.0,30.08,North,5,0.0,0.0,95,0.00,,,0.00,weatherlink.com 1.10,2013-07-31 09:23:00,
2013-07-31 05:38:00,68.6,67.0,30.09,North,355,0.0,1.0,95,0.00,,,0.00,weatherlink.com 1.10,2013-07-31 09:38:00,
2013-07-31 05:53:00,68.6,67.0,30.09,North,355,0.0,0.0,95,0.01,,,0.01,weatherlink.com 1.10,2013-07-31 09:53:00,
2013-07-31 06:08:00,68.6,67.0,30.09,North,355,0.0,0.0,95,0.01,,,0.01,weatherlink.com 1.10,2013-07-31 10:08:00,
2013-07-31 06:23:00,68.7,68.0,30.10,North,355,0.0,1.0,96,0.01,,,0.01,weatherlink.com 1.10,2013-07-31 10:23:00,
2013-07-31 06:38:00,68.7,68.0,30.10,North,355,0.0,0.0,96,0.01,,,0.01,weatherlink.com 1.10,2013-07-31 10:38:00,
2013-07-31 06:53:00,68.7,68.0,30.10,North,355,0.0,0.0,96,0.00,,,0.01,weatherlink.com 1.10,2013-07-31 10:53:00,
2013-07-31 07:08:00,68.7,68.0,30.10,North,355,0.0,0.0,96,0.00,,,0.01,weatherlink.com 1.10,2013-07-31 11:08:00,
2013-07-31 07:23:00,68.9,68.0,30.10,North,355,0.0,0.0,96,0.00,,,0.01,weatherlink.com 1.10,2013-07-31 11:23:00,
2013-07-31 07:38:00,68.9,68.0,30.10,North,355,0.0,0.0,96,0.00,,,0.01,weatherlink.com 1.10,2013-07-31 11:38:00,
2013-07-31 07:53:00,69.0,68.0,30.09,North,355,0.0,0.0,96,0.00,,,0.01,weatherlink.com 1.10,2013-07-31 11:53:00,
2013-07-31 08:08:00,69.2,68.0,30.09,North,355,0.0,0.0,96,0.00,,,0.01,weatherlink.com 1.10,2013-07-31 12:08:00,
2013-07-31 08:23:00,69.4,69.0,30.09,North,355,0.0,0.0,97,0.00,,,0.01,weatherlink.com 1.10,2013-07-31 12:23:00,
2013-07-31 08:38:00,69.7,69.0,30.09,North,355,0.0,1.0,97,0.00,,,0.01,weatherlink.com 1.10,2013-07-31 12:38:00,
2013-07-31 08:53:00,70.1,69.0,30.09,North,355,0.0,1.0,97,0.00,,,0.01,weatherlink.com 1.10,2013-07-31 12:53:00,
2013-07-31 09:08:00,70.5,70.0,30.10,North,355,0.0,0.0,97,0.00,,,0.01,weatherlink.com 1.10,2013-07-31 13:08:00,
2013-07-31 09:24:00,70.8,70.0,30.10,North,355,0.0,0.0,97,0.00,,,0.01,weatherlink.com 1.10,2013-07-31 13:24:00,
2013-07-31 09:39:00,71.1,70.0,30.09,North,355,0.0,0.0,97,0.00,,,0.01,weatherlink.com 1.10,2013-07-31 13:39:00,
2013-07-31 09:54:00,71.6,71.0,30.10,North,355,0.0,0.0,97,0.00,,,0.01,weatherlink.com 1.10,2013-07-31 13:54:00,
2013-07-31 10:09:00,71.7,71.0,30.10,North,355,0.0,2.0,97,0.00,,,0.01,weatherlink.com 1.10,2013-07-31 14:09:00,
2013-07-31 10:24:00,72.2,71.0,30.09,North,355,0.0,0.0,97,0.00,,,0.01,weatherlink.com 1.10,2013-07-31 14:24:00,
2013-07-31 10:39:00,73.0,72.0,30.09,North,355,0.0,1.0,97,0.00,,,0.01,weatherlink.com 1.10,2013-07-31 14:39:00,
2013-07-31 10:54:00,73.6,72.0,30.09,SW,217,0.0,4.0,96,0.00,,,0.01,weatherlink.com 1.10,2013-07-31 14:54:00,
2013-07-31 11:09:00,74.7,73.0,30.09,SW,226,1.0,5.0,95,0.00,,,0.01,weatherlink.com 1.10,2013-07-31 15:09:00,
2013-07-31 11:24:00,75.8,73.0,30.09,SW,215,1.0,3.0,90,0.00,,,0.01,weatherlink.com 1.10,2013-07-31 15:24:00,
2013-07-31 11:39:00,76.7,73.0,30.08,SSW,198,0.0,3.0,88,0.00,,,0.01,weatherlink.com 1.10,2013-07-31 15:39:00,
2013-07-31 11:54:00,77.7,73.0,30.08,SE,136,2.0,3.0,84,0.00,,,0.01,weatherlink.com 1.10,2013-07-31 15:54:00,
2013-07-31 12:09:00,78.3,72.0,30.07,SSE,148,0.0,3.0,80,0.00,,,0.01,weatherlink.com 1.10,2013-07-31 16:09:00,
2013-07-31 12:24:00,79.1,73.0,30.06,SE,127,0.0,3.0,81,0.00,,,0.01,weatherlink.com 1.10,2013-07-31 16:24:00,
2013-07-31 12:39:00,79.6,73.0,30.06,SSE,159,0.0,4.0,80,0.00,,,0.01,weatherlink.com 1.10,2013-07-31 16:39:00,
2013-07-31 12:54:00,79.9,73.0,30.06,South,181,0.0,3.0,79,0.00,,,0.01,weatherlink.com 1.10,2013-07-31 16:54:00,
2013-07-31 13:09:00,80.2,73.0,30.06,SE,146,1.0,4.0,78,0.00,,,0.01,weatherlink.com 1.10,2013-07-31 17:09:00,
2013-07-31 13:25:00,80.3,73.0,30.06,South,180,0.0,5.0,77,0.00,,,0.01,weatherlink.com 1.10,2013-07-31 17:25:00,
2013-07-31 13:39:00,80.2,72.0,30.05,SE,126,0.0,2.0,77,0.00,,,0.01,weatherlink.com 1.10,2013-07-31 17:39:00,
2013-07-31 13:54:00,80.2,73.0,30.05,SW,215,2.0,6.0,79,0.00,,,0.01,weatherlink.com 1.10,2013-07-31 17:54:00,
2013-07-31 14:09:00,80.3,73.0,30.04,SSE,153,0.0,6.0,78,0.00,,,0.01,weatherlink.com 1.10,2013-07-31 18:09:00,
2013-07-31 14:24:00,80.2,73.0,30.04,South,186,2.0,4.0,78,0.00,,,0.01,weatherlink.com 1.10,2013-07-31 18:24:00,
2013-07-31 14:39:00,79.9,73.0,30.04,SW,214,0.0,4.0,78,0.00,,,0.01,weatherlink.com 1.10,2013-07-31 18:39:00,
2013-07-31 14:54:00,79.5,73.0,30.04,WSW,250,0.0,2.0,80,0.00,,,0.01,weatherlink.com 1.10,2013-07-31 18:54:00,
2013-07-31 15:09:00,78.9,73.0,30.03,SSW,211,0.0,3.0,82,0.00,,,0.01,weatherlink.com 1.10,2013-07-31 19:09:00,
2013-07-31 15:24:00,78.7,73.0,30.02,SSW,211,0.0,0.0,83,0.00,,,0.01,weatherlink.com 1.10,2013-07-31 19:24:00,
2013-07-31 15:39:00,78.6,73.0,30.02,SSW,213,0.0,3.0,83,0.00,,,0.01,weatherlink.com 1.10,2013-07-31 19:39:00,
2013-07-31 15:54:00,78.5,73.0,30.02,SSW,213,0.0,1.0,82,0.00,,,0.01,weatherlink.com 1.10,2013-07-31 19:54:00,
2013-07-31 16:09:00,78.4,73.0,30.00,SSW,213,0.0,2.0,82,0.00,,,0.01,weatherlink.com 1.10,2013-07-31 20:09:00,
2013-07-31 16:24:00,78.4,73.0,30.00,SSW,213,0.0,1.0,83,0.00,,,0.01,weatherlink.com 1.10,2013-07-31 20:24:00,
2013-07-31 16:39:00,78.9,74.0,29.99,SSW,213,0.0,2.0,85,0.00,,,0.01,weatherlink.com 1.10,2013-07-31 20:39:00,
2013-07-31 16:54:00,79.2,73.0,29.99,South,169,0.0,3.0,82,0.00,,,0.01,weatherlink.com 1.10,2013-07-31 20:54:00,
2013-07-31 17:10:00,79.4,73.0,29.98,ESE,118,0.0,3.0,81,0.00,,,0.01,weatherlink.com 1.10,2013-07-31 21:10:00,
2013-07-31 17:25:00,79.7,74.0,29.98,ESE,121,1.0,2.0,82,0.00,,,0.01,weatherlink.com 1.10,2013-07-31 21:25:00,
2013-07-31 17:40:00,79.8,74.0,29.98,SE,144,1.0,2.0,83,0.00,,,0.01,weatherlink.com 1.10,2013-07-31 21:40:00,
2013-07-31 17:55:00,79.7,74.0,29.97,SW,224,1.0,3.0,82,0.00,,,0.01,weatherlink.com 1.10,2013-07-31 21:55:00,
2013-07-31 18:10:00,79.4,74.0,29.96,SSE,165,0.0,9.0,82,0.00,,,0.01,weatherlink.com 1.10,2013-07-31 22:10:00,
2013-07-31 18:25:00,78.6,73.0,29.97,South,177,0.0,4.0,83,0.01,,,0.02,weatherlink.com 1.10,2013-07-31 22:25:00,
2013-07-31 18:40:00,77.8,73.0,29.97,SSE,162,0.0,2.0,84,0.01,,,0.02,weatherlink.com 1.10,2013-07-31 22:40:00,
2013-07-31 18:55:00,76.9,73.0,29.97,East,98,0.0,6.0,87,0.01,,,0.02,weatherlink.com 1.10,2013-07-31 22:55:00,
2013-07-31 19:10:00,76.0,72.0,29.97,East,96,0.0,2.0,87,0.01,,,0.02,weatherlink.com 1.10,2013-07-31 23:10:00,
2013-07-31 19:25:00,75.6,72.0,29.96,East,96,0.0,2.0,88,0.00,,,0.02,weatherlink.com 1.10,2013-07-31 23:25:00,
2013-07-31 19:40:00,75.2,72.0,29.97,East,96,0.0,1.0,89,0.00,,,0.02,weatherlink.com 1.10,2013-07-31 23:40:00,
2013-07-31 19:55:00,74.8,72.0,29.97,East,96,0.0,1.0,90,0.00,,,0.02,weatherlink.com 1.10,2013-07-31 23:55:00,
2013-07-31 20:10:00,74.3,72.0,29.97,East,96,0.0,1.0,91,0.00,,,0.02,weatherlink.com 1.10,2013-08-01 00:10:00,
2013-07-31 20:25:00,74.0,71.0,29.96,East,98,1.0,2.0,91,0.00,,,0.02,weatherlink.com 1.10,2013-08-01 00:25:00,
2013-07-31 20:40:00,73.5,71.0,29.95,SE,143,0.0,3.0,91,0.00,,,0.02,weatherlink.com 1.10,2013-08-01 00:40:00,
2013-07-31 20:55:00,73.1,71.0,29.96,ESE,116,2.0,2.0,92,0.00,,,0.02,weatherlink.com 1.10,2013-08-01 00:55:00,
2013-07-31 21:10:00,72.8,70.0,29.96,East,91,1.0,2.0,92,0.00,,,0.02,weatherlink.com 1.10,2013-08-01 01:10:00,
2013-07-31 21:25:00,72.5,70.0,29.95,East,89,0.0,3.0,92,0.00,,,0.02,weatherlink.com 1.10,2013-08-01 01:25:00,
2013-07-31 21:40:00,72.3,70.0,29.95,East,96,0.0,3.0,93,0.00,,,0.02,weatherlink.com 1.10,2013-08-01 01:40:00,
2013-07-31 21:55:00,72.2,70.0,29.96,ESE,107,0.0,5.0,93,0.00,,,0.02,weatherlink.com 1.10,2013-08-01 01:55:00,
2013-07-31 22:10:00,72.1,70.0,29.97,SE,124,1.0,3.0,94,0.00,,,0.02,weatherlink.com 1.10,2013-08-01 02:10:00,
2013-07-31 22:25:00,72.2,70.0,29.96,SW,220,0.0,6.0,94,0.00,,,0.02,weatherlink.com 1.10,2013-08-01 02:25:00,
2013-07-31 22:40:00,72.2,71.0,29.96,South,181,0.0,4.0,95,0.07,,,0.09,weatherlink.com 1.10,2013-08-01 02:40:00,
2013-07-31 22:55:00,72.4,71.0,29.96,SW,227,0.0,5.0,95,0.15,,,0.17,weatherlink.com 1.10,2013-08-01 02:55:00,
2013-07-31 23:10:00,72.4,71.0,29.95,SSE,168,0.0,4.0,96,0.19,,,0.21,weatherlink.com 1.10,2013-08-01 03:10:00,
2013-07-31 23:25:00,71.8,70.0,29.96,SSE,168,2.0,18.0,95,0.35,,,0.37,weatherlink.com 1.10,2013-08-01 03:25:00,
2013-07-31 23:40:00,70.6,69.0,29.96,North,5,2.0,16.0,95,0.29,,,0.39,weatherlink.com 1.10,2013-08-01 03:40:00,
2013-07-31 23:55:00,70.2,69.0,29.96,WSW,251,0.0,12.0,95,0.23,,,0.40,weatherlink.com 1.10,2013-08-01 03:55:00,